Location: ???????
(55.4362°N, 38.1183°E)
Time: 20:42:33
(UTC+00:00)

USA 267 - Pass Details

Date: 01 November 2021
Orbit: 1101 x 1107 km, 123.0° (Epoch: 27 November)

Event Time Altitude Azimuth Distance (km) Brightness Sun altitude
Exits shadow 15:36:53 10° 130° (SE) 2,966 5.1 -15.6°
Reaches altitude 10° 15:36:55 10° 130° (SE) 2,956 5.1 -15.7°
Maximum altitude 15:43:23 62° 211° (SSW) 1,230 3.6 -16.6°
Drops below altitude 10° 15:49:52 10° 292° (WNW) 2,965 6.6 -17.5°
Sets 15:52:24 0° 295° (WNW) 3,925 7.3 -17.8°
